Home   Weather   Gaza   Past weeks
Flag for Palestinian Territories

Past Weather in Gaza, Gaza Strip, Palestinian Territories — Yesterday and Last 2 Weeks

Now
66 °F

Scattered clouds.


Feels Like: 66 °F
Forecast: 64 / 58 °F
Wind: N/A

Location: Ben Gurion International Airport

Current Time: Apr 19, 2019 at 3:34:35 pm

Latest Report: Apr 19, 2019 at 2:50 pm


Visibility: N/A

Pressure: 30.01 "Hg

Humidity: 49%

Dew Point: 46 °F

Location of GazaLocation

Past Weather in Gaza — Graph

°F

Gaza Temperature Yesterday

Maximum temperature yesterday: 68 °F (at 12:20 pm)
Minimum temperature yesterday: 57 °F (at 2:20 am)
Average temperature yesterday: 62 °F

High & Low Weather Summary for the Past Weeks

 TemperatureHumidityPressure
High91 °F (Apr 13, 2:20 pm)94% (Apr 5, 3:20 am)30.07 "Hg (Apr 5, 3:20 am)
Low54 °F (Apr 6, 6:20 am)14% (Apr 13, 2:20 pm)29.68 "Hg (Apr 14, 2:20 am)
Average65 °F65%29.92 "Hg
* Reported Apr 4 1:20 pm — Apr 19 1:50 pm, Gaza. Weather by CustomWeather, © 2019

Note: Actual official high and low records may vary slightly from our data, if they occured in-between our weather recording intervals... More about our weather records

Advertising

Gaza Weather History for the Previous 24 Hours

Scroll right to see more
 ConditionsComfort  
Time TempWeatherWind HumidityBarometerVisibility
1:50 pm
Fri, Apr 19
66 °FScattered clouds.20 mph49%30.01 "HgN/A
1:20 pm66 °FScattered clouds.21 mph49%30.01 "HgN/A
12:50 pm66 °FScattered clouds.20 mph43%30.04 "HgN/A
12:20 pm66 °FScattered clouds.20 mph43%30.04 "HgN/A
11:50 am66 °FScattered clouds.20 mph43%30.04 "HgN/A
11:20 am66 °FScattered clouds.20 mph40%30.04 "HgN/A
10:20 am64 °FScattered clouds.18 mph60%30.01 "HgN/A
9:50 am63 °FPassing clouds.14 mph64%30.01 "HgN/A
9:20 am63 °FScattered clouds.12 mph64%30.01 "HgN/A
8:50 am63 °FScattered clouds.13 mph64%30.01 "HgN/A
8:20 am61 °FScattered clouds.13 mph68%30.01 "HgN/A
7:50 am59 °FScattered clouds.13 mph68%30.01 "HgN/A
7:20 am57 °FPassing clouds.9 mph72%30.01 "HgN/A
6:50 am55 °FPassing clouds.9 mph77%30.01 "HgN/A
6:20 am55 °FPassing clouds.10 mph77%30.01 "HgN/A
5:50 am55 °FPassing clouds.8 mph77%29.98 "HgN/A
5:20 am55 °FPassing clouds.7 mph77%29.98 "HgN/A
4:50 am55 °FPassing clouds.8 mph77%29.98 "HgN/A
4:20 am55 °FPassing clouds.7 mph77%29.98 "HgN/A
3:50 am55 °FPassing clouds.7 mph77%30.01 "HgN/A
3:20 am55 °FPassing clouds.7 mph77%30.01 "HgN/A
2:50 am57 °FPassing clouds.7 mph72%30.01 "HgN/A
2:20 am57 °FPassing clouds.6 mph72%30.01 "HgN/A
1:50 am57 °FPassing clouds.7 mph72%30.01 "HgN/A
1:20 am57 °FPassing clouds.6 mph72%30.04 "HgN/A
12:50 am57 °FPassing clouds.7 mph72%30.04 "HgN/A
12:20 am57 °FPassing clouds.7 mph72%30.04 "HgN/A
11:50 pm
Thu, Apr 18
59 °FPassing clouds.7 mph68%30.04 "HgN/A
11:20 pm59 °FPassing clouds.7 mph68%30.04 "HgN/A
10:50 pm59 °FPassing clouds.8 mph68%30.04 "HgN/A
10:20 pm61 °FPassing clouds.6 mph68%30.04 "HgN/A
9:50 pm61 °FPassing clouds.6 mph63%30.04 "HgN/A
9:20 pm61 °FPassing clouds.5 mph63%30.04 "HgN/A
8:50 pm61 °FPassing clouds.7 mph63%30.04 "HgN/A
8:20 pm63 °FPassing clouds.7 mph59%30.04 "HgN/A
7:50 pm61 °FPassing clouds.8 mph63%30.04 "HgN/A
7:20 pm63 °FPassing clouds.9 mph59%30.04 "HgN/A
6:50 pm63 °FPassing clouds.13 mph59%30.04 "HgN/A
6:20 pm64 °FPassing clouds.13 mph52%30.01 "HgN/A
5:50 pm64 °FPassing clouds.13 mph52%30.01 "HgN/A
5:20 pm66 °FPassing clouds.12 mph49%30.01 "HgN/A
4:50 pm66 °FPassing clouds.13 mph43%30.01 "HgN/A
Weather by CustomWeather, © 2019

See weather overview